[[{"header":{"parameterUnit":"m.s-1","parameterCategory":1,"la1":30.2991,"la2":30.254,"lo1":-89.0895,"lo2":-89.0444,"dy":0.0017,"dx":0.0017,"nx":28,"ny":28,"refTime":"2024-03-18T09:00:00:Z","depth":0,"parameterNumber":2,"parameterNumberName":"U-component_of_WINDS"},"data":[0,0,0,0,0,0,0,0,0,0,0,0,0,0,0,0,0,0,0,0,0,0,0,0,0,0,0,0,0,0,0,0,0,0,0,0,0,0,0,0,0,0,0,0,0,0,0,0,0,0,0,0,0,0,0,0,0,0,3.7194,3.7195,0,3.7324,3.7326,3.7327,3.731,3.7308,3.7306,3.7304,3.7435,3.744,3.7446,0,0,0,0,0,0,0,0,0,0,0,0,0,3.6926,3.6931,3.7194,3.7196,3.7197,3.7324,3.7326,3.7328,3.7311,3.7308,3.7305,3.7303,3.7433,3.744,3.7446,0,0,0,0,0,0,0,0,0,0,0,0,0,3.7048,3.6933,3.7194,3.7204,3.7206,3.7324,3.7326,3.7328,3.7311,3.7308,3.7305,3.7302,3.7431,3.7439,3.7447,3.7562,0,0,3.7472,3.7476,0,0,0,0,0,0,0,0,3.7041,3.7058,3.7201,3.7203,3.7206,3.7298,3.7279,3.7406,3.7312,3.7271,3.7304,3.73,3.7392,3.7403,3.7434,3.7568,3.7574,3.7473,3.7478,3.7481,3.7484,0,0,0,0,0,0,0,3.7033,3.7052,3.7245,3.7203,3.7206,3.7201,3.7214,3.7303,3.7348,3.7274,3.7274,3.7289,3.7393,3.7426,3.7437,3.7576,3.7473,3.748,3.7485,3.7488,3.7806,3.7809,0,0,0,0,0,0,3.7022,3.7045,3.7241,3.7249,3.7114,3.7208,3.7224,3.7272,3.7347,3.7355,3.7292,3.7288,3.7414,3.7428,3.7442,3.7578,3.7481,3.7489,3.7494,3.7802,3.7806,3.781,0,0,0,0,0,0,3.7016,3.704,3.7236,3.7147,3.7172,3.7216,3.727,3.7276,3.731,3.736,3.7367,3.7319,3.7412,3.743,3.7531,3.7582,3.7493,3.75,3.7798,3.7803,3.7808,3.7853,0,0,0,0,0,0,3.7009,3.7038,3.7083,3.7148,3.7176,3.7325,3.7273,3.7281,3.7324,3.732,3.7387,3.7395,3.7411,3.7519,3.754,3.7592,3.7507,3.7794,3.78,3.7807,3.7847,3.7859,3.7869,0,0,0,0,0,3.6999,3.7091,3.7085,3.7109,3.7234,3.7328,3.7344,3.7361,3.7329,3.7373,3.7405,3.7393,3.7574,3.753,3.7552,3.7608,3.779,3.7798,3.7806,3.7842,3.7857,3.7869,0,0,0,0,0,0,3.703,3.71,3.7094,3.721,3.7263,3.7325,3.7382,3.7377,3.7439,3.7433,3.7451,3.7466,3.7567,3.7599,3.7548,3.7721,3.7677,3.769,3.7697,3.7711,3.7722,3.7712,3.7514,0,0,0,0,0,3.7051,3.7122,3.7178,3.7275,3.7302,3.7337,3.7379,3.7387,3.7443,3.7465,3.7504,3.7558,3.7626,3.7671,3.7737,3.7852,3.7864,3.7902,3.7913,3.7922,3.7932,3.7991,3.8007,3.7836,3.7836,3.7836,0,0,3.7093,3.714,3.7184,3.7282,3.7324,3.7396,3.7356,3.7435,3.7487,3.7477,3.7574,3.7604,3.7665,3.7772,3.7822,3.7801,3.7982,3.7932,3.7938,3.7944,3.8,3.8017,3.8031,3.7841,3.784,3.784,0,0,3.7207,3.7251,3.7334,3.7377,3.7441,3.7464,3.7484,3.7546,3.7566,3.7664,3.7656,3.7718,3.7837,3.788,3.7917,3.8044,3.8033,3.8065,3.8122,3.818,3.8193,3.8205,3.8247,3.8262,3.8075,3.8075,3.8075,0,3.7251,3.736,3.7378,3.7456,3.7498,3.7492,3.7575,3.7615,3.7698,3.7726,3.7702,3.7849,3.789,3.8005,3.8035,3.8067,3.8088,3.8056,3.819,3.8202,3.8213,3.8253,3.827,3.8079,3.8078,3.8078,3.8078,0,3.7409,3.7485,3.7544,3.7623,3.7672,3.7753,3.7781,3.7828,3.7832,3.7856,3.7954,3.8003,3.8077,3.8105,3.8111,3.8221,3.8206,3.8186,3.8142,3.8233,3.827,3.8286,3.8083,3.8082,3.8081,3.808,0,0,3.7546,3.7633,3.7654,3.7688,3.7757,3.7815,3.7894,3.7967,3.8005,3.8062,3.8127,3.8226,3.8208,3.825,3.8259,3.831,3.8403,3.8284,3.8285,3.8301,3.8523,3.8535,3.8553,3.8398,3.8401,3.8403,3.8517,0,3.7664,3.7804,3.7821,3.7945,3.8012,3.8007,3.8075,3.8124,3.8148,3.8208,3.8235,3.8304,3.8276,3.8301,3.8351,3.8381,3.8447,3.8374,3.8455,3.8458,3.8437,3.8573,3.8587,3.8692,3.8532,3.8535,3.8537,0,3.782,3.788,3.801,3.8067,3.8096,3.8157,3.8223,3.8282,3.8336,3.835,3.8396,3.8398,3.8477,3.8432,3.8539,3.8489,3.8523,3.8543,3.8547,3.8553,3.8501,3.858,3.8727,3.8741,3.8561,3.8559,3.8557,0,3.7902,3.8016,3.8107,3.8137,3.8207,3.8249,3.828,3.8332,3.8373,3.8431,3.8457,3.8524,3.8559,3.861,3.8629,3.8595,3.8734,3.8691,3.8745,3.8745,3.8773,3.877,3.8924,3.8801,3.8801,3.88,3.88,0,3.803,3.8109,3.8144,3.8201,3.8288,3.8306,3.8392,3.8421,3.8466,3.8526,3.8526,3.8582,3.8605,3.8664,3.868,3.8764,3.8782,3.8793,3.8796,3.8792,3.8789,3.8812,3.8804,3.8804,3.8803,3.8803,3.8802,0,3.8135,3.8163,3.8262,3.8319,3.8335,3.8397,3.8445,3.8498,3.8522,3.8597,3.8616,3.8653,3.8722,3.8747,3.8832,3.8842,3.8939,3.8937,3.892,3.892,3.8972,3.8965,3.9143,3.9165,3.903,3.9031,3.9032,0,3.8214,3.8274,3.8337,3.8378,3.841,3.8475,3.8517,3.8537,3.858,3.8645,3.8689,3.8758,3.8814,3.8925,3.8958,3.9022,3.902,3.9077,3.9029,3.9022,3.9016,3.9011,3.9015,3.9085,3.9087,3.9088,3.9089,0,3.8349,3.8358,3.8419,3.8484,3.8534,3.8586,3.8637,3.867,3.8696,3.8745,3.8816,3.8859,3.8944,3.9011,3.9076,3.9106,3.9101,3.9104,3.9119,3.9114,3.91,3.9105,3.8941,3.9099,3.9098,3.9098,3.9097,3.9097,3.8441,3.8493,3.8544,3.8611,3.8651,3.8698,3.8749,3.8779,3.8838,3.8909,3.8917,3.8992,3.9042,3.9129,3.9162,3.9219,3.9203,3.9226,3.9232,3.9236,3.9238,3.9094,3.9232,3.9231,3.9231,3.9231,3.9231,0,3.8572,3.8605,3.8666,3.8736,3.8788,3.878,3.8834,3.8878,3.8944,3.8991,3.9046,3.9125,3.919,3.9228,3.9292,3.9331,3.9329,3.9346,3.9342,3.9348,3.9251,3.9229,3.9346,3.9346,3.9346,3.9346,3.9346,3.9346,3.8647,3.8733,3.8749,3.8854,3.8886,3.8959,3.899,3.9032,3.907,3.9158,3.9212,3.9236,3.9279,3.9346,3.9404,3.9413,3.9435,3.9453,3.946,3.9368,3.9356,3.9344,3.9324,3.9459,3.9459,3.9553,3.9554,3.9554]},{"header":{"parameterUnit":"m.s-1","parameterCategory":1,"la1":30.2991,"la2":30.254,"lo1":-89.0895,"lo2":-89.0444,"dy":0.0017,"dx":0.0017,"nx":28,"ny":28,"refTime":"2024-03-18T09:00:00:Z","depth":0,"parameterNumber":3,"parameterNumberName":"V-component_of_WINDS"},"data":[0,0,0,0,0,0,0,0,0,0,0,0,0,0,0,0,0,0,0,0,0,0,0,0,0,0,0,0,0,0,0,0,0,0,0,0,0,0,0,0,0,0,0,0,0,0,0,0,0,0,0,0,0,0,0,0,0,0,0.5569,0.5569,0,0.5555,0.5555,0.5555,0.5525,0.5524,0.5524,0.5523,0.5509,0.551,0.551,0,0,0,0,0,0,0,0,0,0,0,0,0,0.557,0.557,0.5569,0.5569,0.5569,0.5555,0.5555,0.5555,0.5525,0.5524,0.5524,0.5523,0.5509,0.551,0.551,0,0,0,0,0,0,0,0,0,0,0,0,0,0.5564,0.557,0.557,0.5553,0.5551,0.5555,0.5555,0.5555,0.5525,0.5524,0.5523,0.5523,0.5509,0.551,0.551,0.553,0,0,0.5511,0.5511,0,0,0,0,0,0,0,0,0.5565,0.5564,0.5555,0.5554,0.5552,0.5541,0.555,0.5547,0.5525,0.5535,0.5523,0.5522,0.5521,0.552,0.5519,0.5529,0.5529,0.5511,0.5511,0.5511,0.5511,0,0,0,0,0,0,0,0.5565,0.5565,0.5564,0.5555,0.5553,0.5545,0.5544,0.5549,0.5533,0.5534,0.5532,0.5531,0.552,0.5519,0.5519,0.5529,0.5511,0.5511,0.5511,0.5511,0.5552,0.5553,0,0,0,0,0,0,0.5568,0.5565,0.5564,0.5563,0.5556,0.5546,0.5544,0.5545,0.5533,0.553,0.5531,0.5529,0.5519,0.5519,0.5518,0.554,0.5511,0.5511,0.5512,0.5551,0.5552,0.5553,0,0,0,0,0,0,0.5568,0.5568,0.5565,0.5564,0.5563,0.5547,0.5549,0.5546,0.5545,0.5531,0.5528,0.5534,0.5518,0.5518,0.5527,0.5539,0.5512,0.5512,0.555,0.5552,0.5553,0.5584,0,0,0,0,0,0,0.5568,0.5568,0.5576,0.5564,0.5563,0.5574,0.555,0.5546,0.5546,0.5543,0.5533,0.553,0.5518,0.5527,0.5527,0.5539,0.5512,0.5549,0.5551,0.5553,0.5582,0.5587,0.559,0,0,0,0,0,0.5568,0.5586,0.5577,0.5577,0.5572,0.5575,0.5574,0.5559,0.5547,0.5554,0.5545,0.553,0.5537,0.5528,0.5528,0.554,0.5548,0.555,0.5552,0.558,0.5586,0.559,0,0,0,0,0,0,0.5601,0.5584,0.5574,0.5588,0.5583,0.557,0.5579,0.5566,0.5565,0.5562,0.5544,0.5542,0.5553,0.5547,0.5537,0.5558,0.554,0.5543,0.5562,0.5567,0.5571,0.5572,0.5512,0,0,0,0,0,0.561,0.5613,0.5598,0.5613,0.5611,0.5595,0.5596,0.5585,0.5579,0.5577,0.5568,0.5563,0.5563,0.5565,0.5565,0.5581,0.5578,0.5589,0.5593,0.5597,0.5599,0.5606,0.561,0.556,0.556,0.556,0,0,0.5628,0.562,0.5623,0.5619,0.5614,0.5617,0.5594,0.5599,0.5601,0.5577,0.5585,0.5578,0.5571,0.5583,0.5588,0.5579,0.5612,0.5599,0.5602,0.5603,0.5608,0.5613,0.5617,0.5562,0.5561,0.5561,0,0,0.5664,0.5658,0.5668,0.5663,0.5655,0.5644,0.5647,0.5635,0.5629,0.5636,0.5618,0.562,0.5623,0.5618,0.5616,0.5647,0.5633,0.5647,0.5669,0.5676,0.568,0.5683,0.5694,0.5698,0.5649,0.565,0.565,0,0.5688,0.5693,0.5676,0.5682,0.568,0.5657,0.5667,0.5663,0.5655,0.5655,0.5644,0.5645,0.5639,0.5649,0.5656,0.5656,0.5657,0.5649,0.5681,0.5684,0.5687,0.5696,0.5701,0.5651,0.5651,0.5651,0.5651,0,0.5723,0.5726,0.5736,0.5728,0.5727,0.5735,0.5719,0.572,0.5708,0.5698,0.5705,0.5696,0.5693,0.5695,0.5684,0.5703,0.5697,0.5684,0.5666,0.5694,0.5702,0.5706,0.5654,0.5653,0.5653,0.5652,0,0,0.5781,0.5761,0.5765,0.5761,0.5749,0.5751,0.5757,0.5754,0.5755,0.575,0.5754,0.5756,0.5743,0.574,0.5728,0.5734,0.5758,0.572,0.5719,0.5727,0.5777,0.5787,0.5792,0.5748,0.5749,0.5749,0.5778,0,0.5814,0.5823,0.5807,0.582,0.5823,0.58,0.5805,0.5798,0.5789,0.5789,0.5778,0.5779,0.5762,0.576,0.5765,0.5754,0.5768,0.5752,0.5752,0.5752,0.5755,0.5797,0.5808,0.5835,0.5781,0.5782,0.5782,0,0.5854,0.585,0.5863,0.5849,0.5849,0.5854,0.5849,0.585,0.5841,0.5833,0.5829,0.5814,0.5819,0.58,0.5806,0.5795,0.5794,0.5788,0.5789,0.5789,0.5769,0.5798,0.5843,0.5847,0.5787,0.5787,0.5787,0,0.5894,0.5892,0.5899,0.5896,0.588,0.5884,0.5877,0.5867,0.5865,0.586,0.5859,0.5855,0.5853,0.5849,0.5833,0.5822,0.584,0.5821,0.5833,0.5834,0.5839,0.5839,0.5885,0.5838,0.5838,0.5838,0.5838,0,0.5933,0.5942,0.5917,0.5922,0.5931,0.5911,0.592,0.5911,0.5902,0.5904,0.5884,0.5886,0.5865,0.5864,0.5851,0.5857,0.5856,0.585,0.5847,0.5852,0.5853,0.5851,0.5849,0.5839,0.5839,0.5839,0.5838,0,0.598,0.5963,0.597,0.5953,0.5949,0.5956,0.5942,0.5945,0.5933,0.5936,0.5935,0.5917,0.5915,0.5898,0.5893,0.5884,0.5895,0.5888,0.5898,0.5896,0.5909,0.5908,0.5956,0.5961,0.5911,0.5911,0.5912,0,0.6006,0.6012,0.5995,0.5995,0.5989,0.5989,0.5987,0.5967,0.5965,0.5954,0.5958,0.5955,0.5951,0.5949,0.5935,0.593,0.5923,0.594,0.5922,0.5927,0.5923,0.5923,0.5923,0.5944,0.5945,0.5945,0.5946,0,0.6054,0.6045,0.6042,0.6036,0.6034,0.6029,0.6022,0.6023,0.6001,0.6,0.5997,0.5994,0.5988,0.5984,0.5977,0.5969,0.5954,0.5951,0.5954,0.596,0.5965,0.5962,0.5908,0.5951,0.595,0.595,0.595,0.5949,0.6091,0.6095,0.6083,0.608,0.6073,0.6067,0.6068,0.6056,0.6054,0.6047,0.6035,0.6034,0.6023,0.6011,0.6004,0.6003,0.5994,0.5998,0.5999,0.6,0.6003,0.5965,0.6001,0.6001,0.6001,0.6001,0.6001,0,0.6137,0.6128,0.6126,0.6116,0.6114,0.6098,0.609,0.6089,0.6088,0.6079,0.6075,0.6071,0.6067,0.6052,0.6046,0.6047,0.604,0.6046,0.6046,0.6044,0.6011,0.601,0.6052,0.6052,0.6052,0.6052,0.6052,0.6052,0.6161,0.6166,0.6156,0.6157,0.6147,0.6146,0.6142,0.6136,0.6128,0.6125,0.6121,0.611,0.6098,0.6091,0.6086,0.6081,0.608,0.6089,0.6082,0.6052,0.6047,0.6042,0.604,0.6089,0.6089,0.6115,0.6115,0.6115]}]]